sat.trackr.live / text

‹ back to catalog

STARLINK-37245

NORAD 68547 · 2026-070F

PAYLOAD ACTIVE UNKNOWN

§ Identity

Operator
Country
US
Launch date
2026-04-02
Launch site
AFETR
Launch vehicle
Mass (kg)
RCS (m²)

Purposes: comms

External: N2YO · Heavens-Above · Gunter

§ Orbital elements

Epoch: 2026-09-19T05:59:05.942976Z

Period
93.85 min
Inclination
53.1578°
Eccentricity
0.0001324
Mean motion
15.34421397 rev/d
Perigee alt
461.7 km
Apogee alt
463.5 km
Semi-major
6,840.8 km
B*
8.9667e-4
RAAN
179.6880°
Arg perigee
87.1814°
Mean anomaly
272.9340°
Rev number
2,624

§ Raw data

STARLINK-372451 68547U 26070F   26262.24937434  .00030061  00000+0  89667-3 0  99972 68547  53.1578 179.6880 0001324  87.1814 272.9340 15.34421397 26249

JSON: /api/v1/satellites/68547 · /tle

For live sub-satellite position, see the globe view (requires WebGL).

§ Visibility from observer

Set your observer location to see the next 7 days of passes ≥ 10°. The values pass through the URL so the page stays shareable.

No JS? Fill the form by hand. The geolocation button needs JavaScript.